Change the Weather History Date:

Monday, January 20, 2014

  Actual Average (KDFW) Record (KDFW)
Temperature  
Mean Temperature 58 °F 46 °F  
Max Temperature 73 °F 57 °F 83 °F (1986)
Min Temperature 44 °F 35 °F 10 °F (1985)
Degree Days  
Heating Degree Days 6 19  
Month to date heating degree days 391  
Since 1 July heating degree days 1303  
Cooling Degree Days 0 0  
Month to date cooling degree days 0  
Year to date cooling degree days 0  
Growing Degree Days 8 (Base 50)    
Moisture  
Dew Point 29 °F    
Average Humidity 39    
Maximum Humidity 57    
Minimum Humidity 20    
Precipitation  
Precipitation 0.00 in 0.08 in 0.76 in (2007)
Month to date precipitation 1.29  
Year to date precipitation 1.29  
Snow  
Snow 0.00 in 0.00 in T in (1979)
Month to date snowfall 0.1  
Since 1 July snowfall 0.4  
Snow Depth -    
Sea Level Pressure  
Sea Level Pressure 30.02 in    
Wind  
Wind Speed 11 mph (WSW)    
Max Wind Speed 22 mph    
Max Gust Speed 33 mph    
Visibility 13 miles    
Events      
T = Trace of Precipitation, MM = Missing Value Source: NWS Daily Summary

Daily Weather History Graph

Daily Weather History Graph

Search for Another Location

Airport or City:

Trip Planner

Search our weather history database for the weather conditions in past years. The results will help you decide how hot, cold, wet, or windy it might be!

Date:

Astronomy

Jan. 20, 2014 Rise Set
Actual Time 7:29 AM CST 5:51 PM CST
Civil Twilight 7:03 AM CST 6:17 PM CST
Nautical Twilight 6:33 AM CST 6:47 PM CST
Astronomical Twilight 6:04 AM CST 7:16 PM CST
Moon 10:09 PM CST (1/20) 9:46 AM CST (1/20)
Length of Visible Light 11h 13m
Length of Day
10h 21m
Waning Gibbous, 82% of the Moon is Illuminated
Jan 20
Waning Gibbous
Jan 23
Last Quarter
Jan 30
New
Feb 6
First Quarter
Feb 14
Full

Hourly Weather History & Observations

Time (CST) Temp. Windchill Dew Point Humidity Pressure Visibility Wind Dir Wind Speed Gust Speed Precip Events Conditions
12:15 AM 49.3 °F - 28.4 °F 45% 30.05 in 10.0 mi SSW 9.2 mph - N/A   Clear
12:35 AM 49.1 °F - 28.4 °F 45% 30.04 in 10.0 mi South 8.1 mph - N/A   Clear
12:55 AM 48.6 °F - 28.6 °F 46% 30.04 in 10.0 mi South 9.2 mph - N/A   Clear
1:15 AM 48.6 °F - 28.4 °F 46% 30.03 in 10.0 mi SSW 8.1 mph - N/A   Clear
1:35 AM 50.0 °F - 28.4 °F 43% 30.02 in 10.0 mi SSW 11.5 mph - N/A   Clear
1:55 AM 50.5 °F - 28.0 °F 42% 30.00 in 10.0 mi SSW 9.2 mph - N/A   Clear
2:15 AM 50.9 °F - 28.2 °F 42% 30.00 in 10.0 mi SSW 10.4 mph 16.1 mph N/A   Clear
2:35 AM 50.2 °F - 28.2 °F 43% 29.99 in 10.0 mi SSW 11.5 mph 17.3 mph N/A   Clear
2:55 AM 49.5 °F - 28.4 °F 44% 29.98 in 10.0 mi SSW 10.4 mph - N/A   Clear
3:15 AM 48.7 °F - 28.8 °F 46% 29.98 in 10.0 mi SSW 10.4 mph 16.1 mph N/A   Clear
3:35 AM 48.6 °F - 28.9 °F 47% 29.97 in 10.0 mi SSW 10.4 mph - N/A   Clear
3:55 AM 48.4 °F - 29.1 °F 47% 29.97 in 10.0 mi SSW 9.2 mph - N/A   Clear
4:15 AM 48.0 °F - 29.3 °F 48% 29.97 in 10.0 mi SSW 10.4 mph - N/A   Clear
4:35 AM 47.1 °F - 29.3 °F 50% 29.96 in 10.0 mi SSW 6.9 mph - N/A   Clear
4:55 AM 46.8 °F - 29.3 °F 51% 29.95 in 10.0 mi SSW 8.1 mph - N/A   Clear
5:15 AM 45.9 °F 41.7 °F 29.3 °F 52% 29.95 in 10.0 mi South 8.1 mph - N/A   Clear
5:35 AM 47.7 °F - 29.7 °F 50% 29.94 in 10.0 mi South 9.2 mph - N/A   Clear
5:55 AM 47.3 °F - 29.8 °F 51% 29.94 in 10.0 mi SSW 6.9 mph - N/A   Clear
6:15 AM 47.7 °F - 29.7 °F 50% 29.94 in 10.0 mi SSW 8.1 mph - N/A   Clear
6:49 AM 46.4 °F 41.9 °F 30.2 °F 53% 29.93 in 10.0 mi South 9.2 mph - N/A   Clear
7:53 AM 44.6 °F 39.7 °F 30.2 °F 57% 29.93 in 20.0 mi South 9.2 mph - N/A   Clear
8:53 AM 51.8 °F - 32.0 °F 47% 29.92 in 20.0 mi SSW 8.1 mph - N/A   Clear
9:50 AM 57.2 °F - 33.8 °F 41% 29.93 in 20.0 mi SW 15.0 mph - N/A   Clear
10:46 AM 62.6 °F - 37.4 °F 39% 29.93 in 20.0 mi SSW 10.4 mph - N/A   Clear
11:48 AM 69.8 °F - 39.2 °F 33% 29.91 in 20.0 mi WSW 15.0 mph - N/A   Clear
12:54 PM 73.4 °F - 35.6 °F 25% 29.87 in 20.0 mi West 16.1 mph - N/A   Clear
1:50 PM 73.4 °F - 33.8 °F 23% 29.86 in 20.0 mi WNW 21.9 mph - N/A   Clear
2:50 PM 73.4 °F - 33.8 °F 23% 29.86 in 20.0 mi WNW 18.4 mph - N/A   Clear
3:52 PM 71.6 °F - 28.4 °F 20% 29.90 in 20.0 mi NW 17.3 mph - N/A   Clear
4:53 PM 69.8 °F - 26.6 °F 20% 29.93 in 20.0 mi NNW 17.3 mph - N/A   Clear
5:50 PM 62.6 °F - 28.4 °F 27% 29.99 in 20.0 mi NNW 18.4 mph - N/A   Clear
6:53 PM 57.2 °F - 26.6 °F 31% 30.04 in 20.0 mi NNW 6.9 mph - N/A   Clear
7:55 PM 57.7 °F - 29.3 °F 34% 30.09 in 10.0 mi NNW 15.0 mph - N/A   Clear
8:15 PM 59.5 °F - 28.2 °F 30% 30.10 in 10.0 mi North 21.9 mph 27.6 mph N/A   Clear
8:35 PM 59.0 °F - 28.0 °F 31% 30.13 in 10.0 mi North 17.3 mph 33.4 mph N/A   Clear
8:55 PM 57.9 °F - 28.4 °F 32% 30.15 in 10.0 mi North 19.6 mph 24.2 mph N/A   Clear
9:15 PM 57.4 °F - 28.2 °F 33% 30.16 in 10.0 mi North 19.6 mph 24.2 mph N/A   Clear
9:35 PM 57.2 °F - 27.5 °F 32% 30.17 in 10.0 mi North 19.6 mph 27.6 mph N/A   Clear
9:55 PM 56.5 °F - 26.1 °F 31% 30.19 in 10.0 mi North 16.1 mph 23.0 mph N/A   Clear
10:15 PM 55.2 °F - 27.3 °F 34% 30.20 in 10.0 mi North 15.0 mph - N/A   Clear
10:35 PM 54.1 °F - 26.6 °F 35% 30.21 in 10.0 mi North 15.0 mph - N/A   Clear
10:55 PM 53.8 °F - 26.8 °F 35% 30.22 in 10.0 mi NNW 13.8 mph - N/A   Clear
11:15 PM 53.4 °F - 25.5 °F 34% 30.24 in 10.0 mi North 17.3 mph 24.2 mph N/A   Clear
11:35 PM 52.9 °F - 24.1 °F 33% 30.25 in 10.0 mi North 13.8 mph 20.7 mph N/A   Clear
11:55 PM 52.7 °F - 23.5 °F 32% 30.25 in 10.0 mi North 19.6 mph 25.3 mph N/A   Clear